Location: Unspecified
(43.4680°N, 87.1740°E)
Time: 20:13:30
(UTC+00:00)

SPOT 1/Viking Rocket - Pass Details

Date: 17 April 2021
Orbit: 776 x 794 km, 98.4° (Epoch: 12 May)

Event Time Altitude Azimuth Distance (km) Brightness Sun altitude
Exits shadow 15:27:39 55° 186° (S) 954 3.7 -24.3°
Maximum altitude 15:28:48 77° 257° (WSW) 819 3.6 -24.5°
Drops below altitude 10° 15:34:03 10° 344° (NNW) 2,372 6.9 -25.1°
Sets 15:36:24 0° 346° (NNW) 3,305 7.7 -25.4°
